Regional Weather Roundup
Issued by NWS

Home | Current Version | Previous Version | Graphics & Text | Print | Product List | Glossary Off
Versions: 1 2 3 4 5 6 7 8 9 10 11 12 13 14 15 16 17 18 19 20 21 22 23 24 25 26 27 28 29 30 31 32 33 34 35 36 37 38 39 40 41 42 43 44 45 46 47 48 49 50

000
ASUS43 KTOP 300108
RWRKS

WEATHER ROUNDUP FOR KANSAS
NATIONAL WEATHER SERVICE GOODLAND KS
800 PM CDT FRI MAY 29 2015

NOTE:  "FAIR" INDICATES FEW OR NO CLOUDS BELOW 12,000 FEET WITH NO
SIGNIFICANT WEATHER AND/OR OBSTRUCTIONS TO VISIBILITY.

KSZ001>006-013>018-027>032-041>047-300200-
NORTHWEST KANSAS

CITY           SKY/WX    TMP DP  RH WIND       PRES   REMARKS
GOODLAND       PTSUNNY   59  51  75 N17G23    30.17R
HAYS           CLOUDY    61  50  67 N26G37    30.06R
HILL CITY      MOCLDY    62  57  83 N16G23    30.07F
RUSSELL        MOCLDY    64  52  64 NW30G45   30.03R
$$

KSZ061>065-074>080-084>089-300200-
SOUTHWEST KANSAS

CITY           SKY/WX    TMP DP  RH WIND       PRES   REMARKS
DODGE CITY     CLEAR     72  58  61 N3        30.02R
ELKHART          N/A     71  53  52 NE6         N/A
GARDEN CITY    MOCLDY    62  51  67 N28G41    30.08R
GREAT BEND     PTCLDY    75  61  60 NW7       29.98R
LIBERAL        MOCLDY    73  54  49 N8        30.07R
PRATT          MOCLDY    75  57  53 N6        30.00R
$$

KSZ066>073-081>083-090>101-300200-
SOUTHEAST KANSAS

CITY           SKY/WX    TMP DP  RH WIND       PRES   REMARKS
CHANUTE        CLOUDY    68  66  93 SE5       29.95R
COFFEYVILLE    CLOUDY    68  65  90 E5        29.95R
HUTCHINSON     MOCLDY    76  61  59 CALM      29.95R
MEDICINE LODGE   N/A     77  62  59 N6        29.96R
NEWTON         CLOUDY    73  61  64 CALM      29.97R
PARSONS        CLOUDY    68  67  96 CALM      29.96R
WICHITA INTL   CLOUDY    75  65  70 S5        29.94R
WICHITA JABRA  CLOUDY    72  65  78 S5        29.95R
WICHITA MCCONL MOCLDY    73  64  73 SE6       29.95R HAZE
WINFIELD       MOCLDY    73  66  78 S3        29.96R
$$

KSZ007>012-019>026-033>040-048>060-102>105-300200-
NORTHEAST KANSAS

CITY           SKY/WX    TMP DP  RH WIND       PRES   REMARKS
CONCORDIA      MOCLDY    73  61  65 MISG      29.95R
EMPORIA        CLOUDY    69  65  86 SE6       29.94R
LAWRENCE       CLOUDY    69  65  86 S7        29.95R
MANHATTAN      CLOUDY    75  66  73 CALM      29.92R
MARYSVILLE     MOCLDY    72  64  78 S5        29.92R
OLATHE IND     CLOUDY    67  65  93 S6        29.96S
OLATHE EXE     CLOUDY    68  65  90 SW3       29.95S
SALINA         MOCLDY    78  58  49 W3        29.95R
TOPEKA BILLARD CLOUDY    71  66  84 S5        29.94R
TOPEKA FORBES  CLOUDY    71  65  81 S5        29.94R
$$



USA.gov is the U.S. government's official web portal to all federal, state and local government web resources and services.